Location: Washington
(38.8950°N, 77.0370°W)
Time: 18:09:18
(UTC-04:00)

Tiangong 1 - Visible Passes

Search period start: 06 July 2015 00:00
Search period end: 16 July 2015 00:00
Orbit: 373 x 390 km, 42.8° (Epoch: 06 July)

Date Brightness Start Highest point End Pass type
(mag) Time Alt. Az. Time Alt. Az. Time Alt. Az.
06 Jul 2.3 21:48:38 10° W 21:51:40 42° N 21:54:40 10° ENE visible
06 Jul 2.9 23:25:37 10° WNW 23:27:39 32° NW 23:27:39 32° NW visible
07 Jul 2.3 22:25:00 10° WNW 22:27:59 39° N 22:29:39 21° ENE visible
08 Jul 4.3 00:01:42 10° WNW 00:01:47 11° WNW 00:01:47 11° WNW visible
08 Jul 2.4 21:24:16 10° WNW 21:27:15 38° N 21:30:13 10° ENE visible
08 Jul 1.9 23:01:06 10° WNW 23:03:43 51° NNW 23:03:43 51° NNW visible
09 Jul 2.0 22:00:26 10° WNW 22:03:29 45° N 22:05:35 17° ENE visible
09 Jul 3.9 23:37:08 10° WNW 23:37:43 14° WNW 23:37:43 14° WNW visible
10 Jul 0.9 22:36:24 10° WNW 22:39:32 88° N 22:39:32 88° N visible
11 Jul 1.5 21:35:40 10° WNW 21:38:47 58° NNE 21:41:21 14° E visible
11 Jul 3.5 23:12:31 10° W 23:13:28 17° W 23:13:28 17° W visible
12 Jul 1.2 22:11:34 10° WNW 22:14:41 57° SSW 22:15:16 46° SSE visible
13 Jul 1.1 21:10:43 10° WNW 21:13:53 84° NNE 21:17:02 10° ESE visible
13 Jul 3.4 22:47:59 10° W 22:49:10 16° WSW 22:49:10 16° WSW visible
14 Jul 2.1 21:46:41 10° W 21:49:34 33° SSW 21:50:57 22° SSE visible
15 Jul 3.8 22:24:19 10° SW 22:24:52 10° SW 22:24:52 10° SW visible
